Date String (YYYY-MM-DD hh:mm:ss) UTC,Instrument flags,absolute air pressure of the measurement (hPa),sample flow rate (lpm),inlet stack bypass flow (lpm),air temperature of the measurement (°C),ambient temperature measured by the external sensor (°C),aerosol sample conditioner tube jacket temperature (°C),OPC LED temperature (°C),internal box temperature (°C),relative humidity of the measurement (%),span deviation,mass concentration of particles derived from Lorenz-Mie calculation of OPC scattering (μg/m³),mass concentration of particles derived from Lorenz-Mie calculation of OPC scattering (μg/m³),mass concentration of particles derived from Lorenz-Mie calculation of OPC scattering (μg/m³)
DateTimeUTC,F1_M11,P_M11,Q1_M11,Q2_M11,T1_M11,T2_M11,T3_M11,T4_M11,T5_M11,U1_M11,ZSPAN_M11,X0_M11,X2_M11,X1_M11
2023-07-01 16:00:00,SystemResetWarning,0835.2,5.00,000.00,029.4,028.2,000.0,037.8,031.0,27.0,0000.0,0006.39,0003.45,0003.20
2023-07-01 16:01:00,SystemResetWarning,0835.2,5.00,000.00,029.4,028.3,000.0,037.9,031.0,25.2,0000.0,0006.36,0003.42,0003.19
2023-07-01 16:02:00,SystemResetWarning,0835.2,5.00,000.00,029.4,027.5,000.0,037.8,031.0,24.1,0000.0,0005.91,0003.41,0003.19
2023-07-01 16:03:00,SystemResetWarning,0835.1,5.00,000.00,029.4,026.2,000.0,037.7,030.9,24.4,0000.0,0005.92,0003.41,0003.19
2023-07-01 16:04:00,SystemResetWarning,0835.1,5.01,000.00,029.3,026.1,000.0,037.7,030.8,25.3,0000.0,0005.93,0003.40,0003.18
2023-07-01 16:05:00,SystemResetWarning,0835.1,5.01,000.00,029.3,026.3,000.0,037.7,030.6,24.5,0000.0,0006.01,0003.40,0003.17
2023-07-01 16:06:00,SystemResetWarning,0835.1,4.99,000.00,029.2,026.6,000.0,037.7,030.7,25.4,0000.0,0006.06,0003.40,0003.16
2023-07-01 16:07:00,SystemResetWarning,0835.2,4.99,000.00,029.2,026.9,000.0,037.8,030.7,25.9,0000.0,0006.02,0003.39,0003.16
2023-07-01 16:08:00,SystemResetWarning,0835.1,5.00,000.00,029.2,027.2,000.0,037.8,030.8,25.3,0000.0,0005.92,0003.36,0003.15
2023-07-01 16:09:00,SystemResetWarning,0835.1,5.00,000.00,029.3,027.4,000.0,037.8,030.8,24.5,0000.0,0005.95,0003.38,0003.15
2023-07-01 16:10:00,SystemResetWarning,0835.1,5.01,000.00,029.3,027.6,000.0,037.8,030.9,24.5,0000.0,0006.57,0003.39,0003.16
2023-07-01 16:11:00,SystemResetWarning,0835.1,5.01,000.00,029.3,027.8,000.0,037.8,030.9,25.3,0000.0,0006.15,0003.38,0003.15
2023-07-01 16:12:00,SystemResetWarning,0835.1,5.00,000.00,029.3,027.9,000.0,037.8,031.0,25.6,0000.0,0005.95,0003.36,0003.15
2023-07-01 16:13:00,SystemResetWarning,0835.1,5.00,000.00,029.4,028.0,000.0,037.8,031.0,25.3,0000.0,0006.51,0003.38,0003.15
2023-07-01 16:14:00,SystemResetWarning,0835.1,5.01,000.00,029.4,028.1,000.0,037.8,031.0,26.5,0000.0,0006.95,0003.40,0003.15
2023-07-01 16:15:00,SystemResetWarning,0835.1,4.99,000.00,029.4,027.9,000.0,037.8,031.0,23.7,0000.0,0007.82,0003.43,0003.16
2023-07-01 16:16:00,SystemResetWarning,0835.1,4.99,000.00,029.4,026.1,000.0,037.7,030.8,24.2,0000.0,0007.97,0003.43,0003.17
2023-07-01 16:17:00,SystemResetWarning,0835.1,5.00,000.00,029.3,024.9,000.0,037.6,030.6,23.1,0000.0,0007.98,0003.43,0003.17
2023-07-01 16:18:00,SystemResetWarning,0835.0,5.01,000.00,029.2,025.0,000.0,037.6,030.5,23.3,0000.0,0008.13,0003.48,0003.18
2023-07-01 16:19:00,SystemResetWarning,0835.1,5.01,000.00,029.1,025.4,000.0,037.6,030.4,22.3,0000.0,0008.21,0003.52,0003.19
2023-07-01 16:20:00,SystemResetWarning,0835.0,4.99,000.00,029.1,025.8,000.0,037.6,030.4,22.7,0000.0,0008.25,0003.55,0003.20
2023-07-01 16:21:00,SystemResetWarning,0835.1,4.99,000.00,029.1,026.2,000.0,037.6,030.5,22.9,0000.0,0007.89,0003.56,0003.21
2023-07-01 16:22:00,SystemResetWarning,0835.1,5.00,000.00,029.0,026.6,000.0,037.6,030.5,20.4,0000.0,0007.61,0003.57,0003.21
2023-07-01 16:23:00,SystemResetWarning,0835.1,5.00,000.00,029.1,026.9,000.0,037.6,030.6,20.8,0000.0,0008.10,0003.58,0003.21
2023-07-01 16:24:00,SystemResetWarning,0835.1,5.01,000.00,029.1,027.1,000.0,037.6,030.7,20.7,0000.0,0007.90,0003.56,0003.20
2023-07-01 16:25:00,SystemResetWarning,0835.1,4.99,000.00,029.1,027.4,000.0,037.7,030.7,21.6,0000.0,0007.81,0003.55,0003.19
2023-07-01 16:26:00,SystemResetWarning,0835.1,4.99,000.00,029.1,027.6,000.0,037.7,030.7,22.5,0000.0,0007.22,0003.56,0003.18
2023-07-01 16:27:00,SystemResetWarning,0835.1,5.00,000.00,029.2,027.7,000.0,037.7,030.8,19.9,0000.0,0006.72,0003.55,0003.18
2023-07-01 16:28:00,SystemResetWarning,0835.1,5.01,000.00,029.2,027.8,000.0,037.7,030.8,19.8,0000.0,0006.62,0003.54,0003.18
2023-07-01 16:29:00,SystemResetWarning,0835.1,5.01,000.00,029.2,027.9,000.0,037.7,030.9,21.5,0000.0,0006.35,0003.51,0003.19
2023-07-01 16:30:00,SystemResetWarning,0835.0,5.00,000.00,029.3,028.0,000.0,037.7,030.9,23.4,0000.0,0006.29,0003.49,0003.19
2023-07-01 16:31:00,SystemResetWarning,0835.1,5.00,000.00,029.3,028.1,000.0,037.7,030.9,22.4,0000.0,0006.16,0003.45,0003.19
2023-07-01 16:32:00,SystemResetWarning,0835.0,4.99,000.00,029.3,027.1,000.0,037.7,030.9,22.6,0000.0,0006.13,0003.45,0003.20
2023-07-01 16:33:00,SystemResetWarning,0835.0,5.00,000.00,029.2,025.3,000.0,037.5,030.6,22.4,0000.0,0006.27,0003.45,0003.21
2023-07-01 16:34:00,SystemResetWarning,0835.0,5.00,000.00,029.1,024.9,000.0,037.5,030.5,22.5,0000.0,0005.88,0003.46,0003.22
2023-07-01 16:35:00,SystemResetWarning,0835.0,5.01,000.00,029.1,025.2,000.0,037.5,030.3,22.5,0000.0,0005.78,0003.48,0003.25
2023-07-01 16:36:00,SystemResetWarning,0834.9,5.00,000.00,029.0,025.6,000.0,037.5,030.3,22.3,0000.0,0005.41,0003.47,0003.27
2023-07-01 16:37:00,SystemResetWarning,0835.0,4.99,000.00,029.0,026.0,000.0,037.5,030.4,22.3,0000.0,0005.23,0003.47,0003.29
2023-07-01 16:38:00,SystemResetWarning,0835.0,4.99,000.00,029.0,026.4,000.0,037.5,030.4,22.9,0000.0,0005.36,0003.49,0003.30
2023-07-01 16:39:00,SystemResetWarning,0834.9,5.01,000.00,029.0,026.7,000.0,037.5,030.5,22.2,0000.0,0005.54,0003.51,0003.31
2023-07-01 16:40:00,SystemResetWarning,0834.9,5.00,000.00,029.0,027.0,000.0,037.5,030.6,22.2,0000.0,0005.74,0003.53,0003.32
2023-07-01 16:41:00,SystemResetWarning,0835.0,4.99,000.00,029.0,027.2,000.0,037.5,030.6,23.3,0000.0,0005.66,0003.52,0003.33
2023-07-01 16:42:00,SystemResetWarning,0835.0,4.99,000.00,029.0,027.4,000.0,037.6,030.7,22.6,0000.0,0005.63,0003.52,0003.35
2023-07-01 16:43:00,SystemResetWarning,0835.0,5.00,000.00,029.1,027.6,000.0,037.6,030.7,22.8,0000.0,0005.50,0003.50,0003.34
2023-07-01 16:44:00,SystemResetWarning,0835.0,4.99,000.00,029.1,027.7,000.0,037.6,030.8,22.7,0000.0,0005.51,0003.50,0003.34
2023-07-01 16:45:00,SystemResetWarning,0835.0,4.99,000.00,029.1,027.9,000.0,037.6,030.8,22.4,0000.0,0004.77,0003.49,0003.33
2023-07-01 16:46:00,SystemResetWarning,0835.0,5.00,000.00,029.2,028.0,000.0,037.6,030.8,22.4,0000.0,0004.64,0003.46,0003.32
2023-07-01 16:47:00,SystemResetWarning,0835.0,5.00,000.00,029.2,028.1,000.0,037.6,030.9,22.7,0000.0,0004.73,0003.48,0003.32
2023-07-01 16:48:00,SystemResetWarning,0834.9,5.00,000.00,029.2,027.1,000.0,037.6,030.8,22.1,0000.0,0004.81,0003.51,0003.33
2023-07-01 16:49:00,SystemResetWarning,0835.3,5.00,000.00,029.2,025.3,000.0,037.5,030.6,22.2,0000.0,0004.79,0003.50,0003.32
2023-07-01 16:50:00,SystemResetWarning,0835.4,5.01,000.00,029.1,025.0,000.0,037.4,030.4,22.6,0000.0,0004.59,0003.48,0003.31
2023-07-01 16:51:00,SystemResetWarning,0835.4,5.02,000.00,029.0,025.3,000.0,037.4,030.3,23.2,0000.0,0004.50,0003.47,0003.31
2023-07-01 16:52:00,SystemResetWarning,0835.4,4.99,000.00,028.9,025.7,000.0,037.4,030.3,22.4,0000.0,0005.67,0003.48,0003.31
2023-07-01 16:53:00,SystemResetWarning,0835.2,5.00,000.00,028.9,026.1,000.0,037.4,030.3,21.9,0000.0,0006.03,0003.50,0003.30
2023-07-01 16:54:00,SystemResetWarning,0835.3,5.01,000.00,028.9,026.5,000.0,037.5,030.4,22.5,0000.0,0006.12,0003.52,0003.31
2023-07-01 16:55:00,SystemResetWarning,0835.4,5.00,000.00,028.9,026.8,000.0,037.5,030.5,22.6,0000.0,0006.14,0003.53,0003.32
2023-07-01 16:56:00,SystemResetWarning,0835.1,5.01,000.00,029.0,027.0,000.0,037.5,030.6,21.4,0000.0,0006.22,0003.55,0003.33
2023-07-01 16:57:00,SystemResetWarning,0834.8,5.00,000.00,029.0,027.3,000.0,037.5,030.6,20.5,0000.0,0006.36,0003.56,0003.34
2023-07-01 16:58:00,SystemResetWarning,0834.9,5.00,000.00,029.0,027.5,000.0,037.5,030.7,21.4,0000.0,0006.32,0003.55,0003.33
2023-07-01 16:59:00,SystemResetWarning,0834.9,4.99,000.00,029.0,027.6,000.0,037.5,030.7,21.5,0000.0,0006.16,0003.50,0003.33
